• In Hungary
  • List of Countries
  • For 7 days
  • Water Temperature
  • Satellite Maps
  • Weather Map
  • News
  • Weather Widgets
  • user-avatar
    Login

    Hourly Weather San Juan Cotzal

    Today, 15 December, Friday

    Time Temperature Precipitation Wind Pressure Humidity
    00:00 +19°C° 0 mm 1 mps 715 mmHg 97%
    01:00 +19°C° 0 mm 1 mps 715 mmHg 97%
    02:00 +19°C° 0 mm 1 mps 715 mmHg 96%
    03:00 +19°C° 0 mm 1 mps 715 mmHg 96%
    04:00 +19°C° 0 mm 1 mps 715 mmHg 95%
    05:00 +19°C° 0 mm 1 mps 715 mmHg 93%
    06:00 +19°C° 0 mm 1 mps 715 mmHg 92%
    07:00 +19°C° 0 mm 0 mps 715 mmHg 83%
    08:00 +21°C° 0 mm 0 mps 716 mmHg 74%
    09:00 +23°C° 0 mm 0 mps 716 mmHg 66%
    10:00 +27°C° 0 mm 1 mps 716 mmHg 61%
    11:00 +29°C° 0 mm 1 mps 716 mmHg 55%
    12:00 +30°C° 0 mm 1 mps 715 mmHg 50%
    13:00 +30°C° 0 mm 1 mps 715 mmHg 51%
    14:00 +30°C° 0 mm 1 mps 715 mmHg 53%
    15:00 +30°C° 0 mm 1 mps 714 mmHg 54%
    16:00 +28°C° 0 mm 1 mps 714 mmHg 65%
    17:00 +26°C° 0 mm 1 mps 714 mmHg 77%
    18:00 +24°C° 0 mm 1 mps 715 mmHg 88%
    19:00 +23°C° 0.3 mm 1 mps 715 mmHg 90%
    20:00 +23°C° 0.3 mm 1 mps 716 mmHg 92%
    21:00 +22°C° 0.3 mm 1 mps 717 mmHg 94%
    22:00 +22°C° 0.3 mm 1 mps 717 mmHg 95%
    23:00 +22°C° 0.3 mm 1 mps 717 mmHg 95%

    Tomorrow, 16 December, Saturday

    Time Temperature Precipitation Wind Pressure Humidity
    00:00 +22°C° 0.3 mm 1 mps 717 mmHg 95%
    01:00 +22°C° 0.3 mm 1 mps 717 mmHg 96%
    02:00 +21°C° 0.3 mm 1 mps 716 mmHg 96%
    03:00 +21°C° 0.3 mm 1 mps 716 mmHg 97%
    04:00 +21°C° 0.4 mm 1 mps 716 mmHg 97%
    05:00 +21°C° 0.4 mm 1 mps 716 mmHg 97%
    06:00 +21°C° 0.4 mm 1 mps 716 mmHg 97%
    07:00 +21°C° 0.5 mm 1 mps 717 mmHg 95%
    08:00 +22°C° 0.5 mm 1 mps 717 mmHg 93%
    09:00 +23°C° 0.5 mm 1 mps 718 mmHg 91%
    10:00 +23°C° 0.1 mm 1 mps 717 mmHg 87%
    11:00 +24°C° 0.1 mm 1 mps 717 mmHg 84%
    12:00 +25°C° 0.1 mm 1 mps 717 mmHg 80%
    13:00 +26°C° 0.1 mm 1 mps 716 mmHg 78%
    14:00 +26°C° 0.1 mm 1 mps 715 mmHg 76%
    15:00 +27°C° 0.1 mm 1 mps 715 mmHg 74%
    16:00 +25°C° 0 mm 1 mps 715 mmHg 81%
    17:00 +24°C° 0 mm 1 mps 715 mmHg 88%
    18:00 +23°C° 0 mm 1 mps 715 mmHg 94%
    19:00 +23°C° 0.1 mm 1 mps 716 mmHg 94%
    20:00 +23°C° 0.1 mm 1 mps 717 mmHg 94%
    21:00 +22°C° 0.1 mm 1 mps 717 mmHg 94%
    22:00 +22°C° 0.1 mm 1 mps 717 mmHg 94%
    23:00 +22°C° 0.1 mm 1 mps 717 mmHg 94%

    Day after tomorrow, 17 December, Sunday

    Time Temperature Precipitation Wind Pressure Humidity
    00:00 +20°C° 0.1 mm 0 mps 717 mmHg 94%
    01:00 +20°C° 0.1 mm 0 mps 717 mmHg 95%
    02:00 +19°C° 0.1 mm 0 mps 716 mmHg 95%
    03:00 +19°C° 0.1 mm 0 mps 716 mmHg 96%
    04:00 +19°C° 0.1 mm 0 mps 716 mmHg 96%
    05:00 +19°C° 0.1 mm 0 mps 716 mmHg 96%
    06:00 +19°C° 0.1 mm 0 mps 716 mmHg 96%
    07:00 +22°C° 0 mm 1 mps 717 mmHg 91%
    08:00 +24°C° 0 mm 1 mps 717 mmHg 85%
    09:00 +25°C° 0 mm 1 mps 718 mmHg 79%
    10:00 +27°C° 0 mm 1 mps 717 mmHg 72%
    11:00 +29°C° 0 mm 1 mps 717 mmHg 64%
    12:00 +30°C° 0 mm 2 mps 717 mmHg 57%
    13:00 +30°C° 0 mm 2 mps 716 mmHg 58%
    14:00 +30°C° 0 mm 2 mps 715 mmHg 59%
    15:00 +30°C° 0 mm 2 mps 714 mmHg 61%
    16:00 +28°C° 0.1 mm 1 mps 714 mmHg 70%
    17:00 +26°C° 0.1 mm 1 mps 714 mmHg 79%
    18:00 +25°C° 0.1 mm 1 mps 715 mmHg 89%
    19:00 +24°C° 0.1 mm 1 mps 715 mmHg 91%
    20:00 +24°C° 0.1 mm 1 mps 716 mmHg 93%
    21:00 +23°C° 0.1 mm 1 mps 717 mmHg 95%
    22:00 +23°C° 0 mm 1 mps 717 mmHg 95%
    23:00 +23°C° 0 mm 1 mps 716 mmHg 95%

    18 December, Monday

    Time Temperature Precipitation Wind Pressure Humidity
    00:00 +22°C° 0 mm 1 mps 716 mmHg 95%
    01:00 +20°C° 0 mm 0 mps 716 mmHg 95%
    02:00 +20°C° 0 mm 0 mps 715 mmHg 96%
    03:00 +20°C° 0 mm 0 mps 715 mmHg 96%
    04:00 +20°C° 0 mm 0 mps 715 mmHg 96%
    05:00 +19°C° 0 mm 0 mps 715 mmHg 96%
    06:00 +19°C° 0 mm 0 mps 716 mmHg 95%
    07:00 +23°C° 0 mm 1 mps 716 mmHg 90%
    08:00 +24°C° 0 mm 1 mps 717 mmHg 84%
    09:00 +26°C° 0 mm 1 mps 717 mmHg 79%
    10:00 +27°C° 0 mm 1 mps 717 mmHg 73%
    11:00 +29°C° 0 mm 1 mps 717 mmHg 66%
    12:00 +30°C° 0 mm 1 mps 716 mmHg 60%
    13:00 +30°C° 0.1 mm 1 mps 715 mmHg 61%
    14:00 +30°C° 0.1 mm 1 mps 715 mmHg 62%
    15:00 +30°C° 0.1 mm 1 mps 714 mmHg 63%
    16:00 +28°C° 0.1 mm 1 mps 714 mmHg 73%
    17:00 +27°C° 0.1 mm 1 mps 715 mmHg 82%
    18:00 +25°C° 0.1 mm 1 mps 715 mmHg 91%
    19:00 +25°C° 0.1 mm 1 mps 716 mmHg 93%
    20:00 +24°C° 0.1 mm 1 mps 716 mmHg 94%
    21:00 +24°C° 0.1 mm 1 mps 717 mmHg 96%
    22:00 +24°C° 0.1 mm 1 mps 717 mmHg 97%
    23:00 +23°C° 0.1 mm 1 mps 716 mmHg 97%

    19 December, Tuesday

    Time Temperature Precipitation Wind Pressure Humidity
    00:00 +21°C° 0.1 mm 0 mps 716 mmHg 97%
    01:00 +21°C° 0.1 mm 0 mps 716 mmHg 97%
    02:00 +21°C° 0.1 mm 0 mps 716 mmHg 97%
    03:00 +21°C° 0.1 mm 0 mps 715 mmHg 98%
    04:00 +20°C° 0 mm 0 mps 716 mmHg 98%
    05:00 +20°C° 0 mm 0 mps 716 mmHg 98%
    06:00 +20°C° 0 mm 0 mps 716 mmHg 98%
    07:00 +22°C° 0 mm 0 mps 716 mmHg 93%
    08:00 +23°C° 0 mm 0 mps 717 mmHg 88%
    09:00 +24°C° 0 mm 0 mps 717 mmHg 83%
    10:00 +27°C° 0 mm 1 mps 717 mmHg 76%
    11:00 +29°C° 0 mm 1 mps 716 mmHg 70%
    12:00 +30°C° 0 mm 1 mps 716 mmHg 63%
    13:00 +30°C° 0.1 mm 1 mps 715 mmHg 64%
    14:00 +30°C° 0.1 mm 1 mps 715 mmHg 65%
    15:00 +30°C° 0.1 mm 1 mps 714 mmHg 66%
    16:00 +28°C° 0.3 mm 1 mps 715 mmHg 75%
    17:00 +26°C° 0.3 mm 1 mps 715 mmHg 84%
    18:00 +23°C° 0.3 mm 0 mps 715 mmHg 94%
    19:00 +24°C° 0.7 mm 1 mps 716 mmHg 95%
    20:00 +24°C° 0.7 mm 1 mps 717 mmHg 97%
    21:00 +24°C° 0.7 mm 1 mps 717 mmHg 98%
    22:00 +23°C° 0.4 mm 1 mps 717 mmHg 97%
    23:00 +23°C° 0.4 mm 1 mps 717 mmHg 97%

    20 December, Wednesday

    Time Temperature Precipitation Wind Pressure Humidity
    00:00 +23°C° 0.4 mm 1 mps 717 mmHg 96%
    01:00 +23°C° 0.2 mm 1 mps 717 mmHg 96%
    02:00 +23°C° 0.2 mm 1 mps 716 mmHg 96%
    03:00 +23°C° 0.2 mm 1 mps 716 mmHg 95%
    04:00 +23°C° 0.2 mm 1 mps 716 mmHg 95%
    05:00 +22°C° 0.2 mm 1 mps 717 mmHg 95%
    06:00 +22°C° 0.2 mm 1 mps 717 mmHg 95%
    07:00 +23°C° 0.2 mm 1 mps 717 mmHg 94%
    08:00 +23°C° 0.2 mm 1 mps 718 mmHg 93%
    09:00 +23°C° 0.2 mm 1 mps 718 mmHg 91%
    10:00 +25°C° 0.1 mm 1 mps 718 mmHg 84%
    11:00 +27°C° 0.1 mm 1 mps 717 mmHg 77%
    12:00 +28°C° 0.1 mm 1 mps 717 mmHg 70%
    13:00 +29°C° 0 mm 1 mps 716 mmHg 66%
    14:00 +29°C° 0 mm 1 mps 716 mmHg 63%
    15:00 +29°C° 0 mm 1 mps 715 mmHg 59%
    16:00 +27°C° 0 mm 1 mps 715 mmHg 67%
    17:00 +25°C° 0 mm 1 mps 715 mmHg 74%
    18:00 +23°C° 0 mm 1 mps 716 mmHg 81%
    19:00 +23°C° 0 mm 1 mps 716 mmHg 80%
    20:00 +22°C° 0 mm 1 mps 716 mmHg 79%
    21:00 +21°C° 0 mm 1 mps 717 mmHg 79%
    22:00 +21°C° 0 mm 1 mps 717 mmHg 78%
    23:00 +21°C° 0 mm 1 mps 716 mmHg 78%
    Show more